Погода в Буоле

Индонезия     1°10′10″N   121°24′23″E
темп.,
°C
ветер,
м/с
пор.,
м/с
влажн.,
%
обл.,
%
осадки,
мм/ч
давл.,
гПа
погр.,
м
22 января, сб
сб2223:00+25в4493100 31.4 1011361
02:00+25вюв1288100 34.3 1009340
05:00+25вюв2285100 0.1 1009400
08:00+26ююв228499 0.1 1010423
11:00+26вюв1179100 0.0 1010400
14:00+27ссв227695 0.0 1007488
17:00+27ссв1272100 0.3 1007635
20:00+27юв227596 0.3 1009550
23 января, вс
вс2323:00+27ююв3379100 0.1 1009475
02:00+26ююз3385100 0.4 1008252
05:00+25юз2283100 0.1 1008197
08:00+26ююз217948 0.1 1010210
11:00+27с127526 0.0 1009344
14:00+28сз447591 0.2 1006643
17:00+28сз7776100 0.4 1006741
20:00+27з4479100 0.4 1007426
24 января, пн
пн2423:00+26зюз3383100 0.0 1008316
02:00+26з3382100 0.1 1007330
05:00+26зюз338262 0.0 1006295
08:00+26зюз238097 0.0 1008302
11:00+28сз337499 0.0 1007438
14:00+28сз997595 0.3 1005612
17:00+28сз91080100 0.8 1004661
20:00+27зсз7880100 0.9 1007583
25 января, вт
вт2523:00+27з458176 0.0 1007471
02:00+26юз338510 0.0 1006272
05:00+25юз228168 0.0 1006185
08:00+26юз227885 0.0 1008231
11:00+28сз447297 0.0 1007514
14:00+28сз8877100 0.0 1004555
17:00+28сз89816 1.6 1004518
20:00+27зсз678177 2.4 1007424
26 января, ср
ср2623:00+27зюз338398 0.0 1007298
02:00+26зюз2283100 0.0 1006238
05:00+26ююз328379 0.0 1006200
08:00+26юз3380100 0.0 1008177
11:00+28сз1170100 0.0 1007217
14:00+28ссз4471100 0.0 1005422
17:00+28ссз3374100 0.1 1005394
20:00+28сз1175100 0.1 1007305